Regional Weather Roundup
Issued by NWS Charleston, SC

Current Version | Previous Version | Graphics & Text | Print | Product List | Glossary On
Versions: 1 2 3 4 5 6 7 8 9 10 11 12 13 14 15 16 17 18 19 20 21 22 23 24 25 26 27 28 29 30 31 32 33 34 35 36 37 38 39 40 41 42 43 44 45 46 47 48 49 50
000
ASUS42 KCHS 011027
RWRCHS

REGIONAL WEATHER ROUNDUP
NATIONAL WEATHER SERVICE CHARLESTON SC
600 AM EDT SAT AUG 01 2015

NOTE: "FAIR" INDICATES FEW OR NO CLOUDS BELOW 12,000 FEET WITH NO
SIGNIFICANT WEATHER AND/OR OBSTRUCTIONS TO VISIBILITY.

NOT ALL STATIONS ARE QUALITY CONTROLLED BY THE NATIONAL
WEATHER SERVICE. USE DATA WITH CAUTION...ESPECIALLY
DEWPOINT OBSERVATIONS.

SCZ027-030-031-034>040-042>050-011100-
...SOUTHEAST SOUTH CAROLINA...

CITY           SKY/WX    TMP DP  RH WIND       PRES   REMARKS
N CHARLESTON   MOCLDY    77  73  87 CALM      29.90R
WATERFRONT PRK   N/A     81  78  91 CALM      29.86F
MOUNT PLEASANT LGT RAIN  77  75  94 CALM      29.90S
JOHNS ISLAND   FAIR      79  75  89 CALM      29.90S
PINOPOLIS      NOT AVBL
MONCKS CORNER  FAIR      75  72  88 CALM      29.90R FOG
SUMMERVILLE    FAIR      73  73 100 CALM      29.91S
BEAUFORT MCAS  CLOUDY    76  74  93 CALM      29.91S
BEAUFORT ARPT  CLOUDY    77  77 100 CALM      29.91R
HILTON HEAD IS NOT AVBL
WALTERBORO     SUNNY     73  72  94 CALM      29.91S
ALLENDALE      PTSUNNY   73  73 100 CALM      29.90S FOG

...SOUTHERN MIDLANDS AND PEE DEE...

CITY           SKY/WX    TMP DP  RH WIND       PRES   REMARKS
GEORGETOWN     NOT AVBL
KINGSTREE      NOT AVBL
ORANGEBURG     CLEAR     75  72  90 CALM      29.90F
BARNWELL       PTSUNNY   75  73  94 CALM      29.92R
AIKEN          FAIR      72  68  88 CALM      29.95S
MANNING        HVY RAIN  72  72 100 CALM      29.90S
COLUMBIA       CLEAR     77  72  84 VRB3      29.90S
SUMTER         CLEAR     75  71  88 VRB2      29.89S
FLORENCE       CLEAR     73  70  90 NW3       29.90S
MYRTLE BEACH   PTCLDY    75  70  83 CALM      29.92S
N MYRTLE BEACH CLEAR     74  72  93 CALM      29.90S

$$

GAZ063-065-086>088-099>101-113>116-118-119-134>141-150-011100-
...SOUTHEAST GEORGIA...

CITY           SKY/WX    TMP DP  RH WIND       PRES   REMARKS
SAVANNAH ARPT  MOCLDY    74  73  97 CALM      29.92R FOG
HUNTER AAF     PTCLDY    73  73 100 W2        29.89S
FORT STEWART   NOT AVBL
STATESBORO     FOG       73  32  22 S3        29.91S VSB 1/4
SYLVANIA       FOG       73  73 100 CALM      29.92S VSB 3/4
CLAXTON        NOT AVBL

...CSRA...CENTRAL AND FAR SOUTHEAST GEORGIA...

CITY           SKY/WX    TMP DP  RH WIND       PRES   REMARKS
THOMSON        CLEAR     74  74 100 CALM      29.96R
AUGUSTA-BUSH   CLEAR     73  72  96 CALM      29.89F
AUGUSTA-DANIEL CLEAR     76  73  91 CALM      29.91F
SWAINSBORO     FAIR     N/A N/A N/A CALM      29.92F
VIDALIA        CLOUDY    73  72  94 CALM      29.92S FOG
EASTMAN        CLOUDY    73  73 100 CALM      29.94S FOG
HAZLEHURST     CLOUDY    76  76 100 CALM      29.91S FOG
ALMA           CLOUDY    75  74  96 CALM      29.91S FOG
WAYCROSS       FOG       77  77 100 CALM      29.90F VSB 3/4
JESUP          CLOUDY    77  75  94 CALM      29.91F FOG
BAXLEY         CLOUDY    75  73  94 CALM      29.91F FOG
BRUNSWICK      PTCLDY    75  73  94 SW6       29.91F
SAINT SIMONS   CLOUDY    77  75  93 SW8       29.90F

$$

SCZ027-028-034-036>038-045-046-048>050-GAZ119-141-011100-
...LAKE AND SUPPLEMENTAL COASTAL OBSERVATIONS...

STATION/POSITION TIME  TEMP    WIND        PRES    WAVE   SWELL
                       AIR SEA DIR/SP/G            HT/PER HT/PER/DIR
                 (UTC) (F)     (DEG/KT/KT) (MB)    (FT/S) (FT/S/D)
UPR LAKE MARION  NOT AVBL
WINYAH BAY       0900   76     300/  2     1011.0
LAKE MURRAY      0900   76     360/  4/  7 1012.5S
ACE BASIN NERRS  NOT AVBL
FORT PULASKI     1000   77 86  290/  6/  7 1013.3S
SAPELO ISLAND    1000   78     220/  9     1012.0F

$$

ANZ835-935-AMZ111-154-330-350-352-354-370-450-454-472-011100-
...C-MAN AND BUOY OBSERVATIONS...

STATION/POSITION TIME  TEMP    WIND        PRES    WAVE   SWELL
                       AIR SEA DIR/SP/G            HT/PER HT/PER/DIR
                 (UTC) (F)     (DEG/KT/KT) (MB)    (FT/S) (FT/S/D)
BUOY 41004       0950   83 84  230/ 16/ 19 1011.7R   4/ 7   2/ 7
BUOY 41008       0950   81 83  210/ 14/ 16 1012.3F   3/ 6
FOLLY BEACH CMAN 1000   79     260/  4/  6 1012.6R
CAPERS NEARSHORE 0908   82     280/  6/ 10 1012.1F
FRIPP NEARSHORE  0900   82     250/ 12/ 16 1012.3F


STATION/POSITION TIME  TEMP    WIND        PRES    WAVE   SWELL
                       AIR SEA DIR/SP/G            HT/PER HT/PER/DIR
                 (UTC) (F)     (DEG/KT/KT) (MB)    (FT/S) (FT/S/D)
5E ST. MARYS GA  0921      83                N/A     3/ 5
FRYING PAN BUOY  0950   78 83  290/ 14/ 16 1013.2R   5/ 7   3/170/ 7
BUOY 41025       0950   82 85  150/  6/  8 1012.5F   4/ 8   3/160/ 8
CAPE LOOKOUT NC  1000   80      80/  8/  9 1012.1R
BUOY 41002       0950   80 81  240/ 21/ 25 1015.1F   7/ 7
BUOY 41010       0920   83 84  200/ 10/ 12 1014.9F
ST AUGUSTINE FL  1000   76 81  200/  7/  8 1013.8F


$$



USA.gov is the U.S. government's official web portal to all federal, state and local government web resources and services.